Back to catalog

NOAA 17 DEB

AliveSSO
NORAD 48766·DEBRIS·🇺🇸 United States

Launched Jun 24, 2002 from Vandenberg Space Force Base

Loading…

Next Passes (next 24 hours)

TLE

FreshSource: Space-Track

Epoch: Sep 13, 2026, 02:57 UTC

1 48766U 02032DB  26256.12352335  .00006574  00000-0  13716-2 0  9995
2 48766  98.6104 222.0144 0007796 352.4462   7.6619 14.60242891284078

Track NOAA 17 DEB in real time with AllMySat

Download on the App Store